Time,TemperatureF,DewpointF,PressureIn,WindDirection,WindDirectionDegrees,WindSpeedMPH,WindSpeedGustMPH,Humidity,HourlyPrecipIn,Conditions,Clouds,dailyrainin,SolarRadiationWatts/m^2,SoftwareType,DateUTC
2013-10-07 00:04:00,43.5,40.5,29.92,NNW,340,0.0,0.0,89,0.00,,,0.16,0.0,meteohub,2013-10-07 05:04:00,
2013-10-07 00:09:00,43.5,40.5,29.92,NNW,340,0.0,0.0,89,0.00,,,0.00,0.0,meteohub,2013-10-07 05:09:00,
2013-10-07 00:14:00,43.5,40.5,29.92,NNW,340,0.0,0.0,89,0.00,,,0.00,0.0,meteohub,2013-10-07 05:14:00,
2013-10-07 00:19:00,43.3,40.3,29.92,NNW,340,0.0,0.0,89,0.00,,,0.00,0.0,meteohub,2013-10-07 05:19:00,
2013-10-07 00:24:00,43.3,40.6,29.92,NNW,340,0.0,0.0,90,0.00,,,0.00,0.0,meteohub,2013-10-07 05:24:00,
2013-10-07 00:29:00,43.3,40.3,29.91,NNW,340,0.0,0.0,89,0.00,,,0.00,0.0,meteohub,2013-10-07 05:29:00,
2013-10-07 00:34:00,43.3,40.6,29.91,NNW,340,0.0,0.0,90,0.00,,,0.00,0.0,meteohub,2013-10-07 05:34:00,
2013-10-07 00:39:00,43.3,40.6,29.91,NNW,340,0.0,0.0,90,0.00,,,0.00,0.0,meteohub,2013-10-07 05:39:00,
2013-10-07 00:44:00,43.3,40.6,29.91,NNW,340,0.0,0.0,90,0.00,,,0.00,0.0,meteohub,2013-10-07 05:44:00,
2013-10-07 00:49:00,43.3,40.6,29.91,NNW,340,0.0,0.0,90,0.00,,,0.00,0.0,meteohub,2013-10-07 05:49:00,
2013-10-07 00:54:00,43.3,40.6,29.91,NNW,340,0.0,0.0,90,0.00,,,0.00,0.0,meteohub,2013-10-07 05:54:00,
2013-10-07 00:59:00,43.2,40.5,29.91,NNW,340,0.0,0.0,90,0.00,,,0.00,0.0,meteohub,2013-10-07 05:59:00,
2013-10-07 01:04:00,43.2,40.5,29.91,NNW,340,0.0,0.0,90,0.00,,,0.00,0.0,meteohub,2013-10-07 06:04:00,
2013-10-07 01:09:00,43.2,40.5,29.91,NNW,340,0.0,0.0,90,0.00,,,0.00,0.0,meteohub,2013-10-07 06:09:00,
2013-10-07 01:14:00,43.2,40.5,29.91,NNW,340,0.0,0.0,90,0.00,,,0.00,0.0,meteohub,2013-10-07 06:14:00,
2013-10-07 01:19:00,43.2,40.5,29.91,NNW,340,0.0,0.0,90,0.00,,,0.00,0.0,meteohub,2013-10-07 06:19:00,
2013-10-07 01:24:00,43.0,40.3,29.91,NNW,340,0.0,0.0,90,0.00,,,0.00,0.0,meteohub,2013-10-07 06:24:00,
2013-10-07 01:29:00,43.0,40.3,29.91,NNW,340,0.0,0.0,90,0.00,,,0.00,0.0,meteohub,2013-10-07 06:29:00,
2013-10-07 01:34:00,43.0,40.3,29.91,NNW,340,0.0,0.0,90,0.00,,,0.00,0.0,meteohub,2013-10-07 06:34:00,
2013-10-07 01:39:00,43.0,40.3,29.91,NNW,340,0.0,0.0,90,0.00,,,0.00,0.0,meteohub,2013-10-07 06:39:00,
2013-10-07 01:44:00,43.0,40.3,29.91,NNW,340,0.0,0.0,90,0.00,,,0.00,0.0,meteohub,2013-10-07 06:44:00,
2013-10-07 01:49:00,42.8,40.1,29.91,NNW,340,0.0,0.0,90,0.00,,,0.00,0.0,meteohub,2013-10-07 06:49:00,
2013-10-07 01:54:00,42.8,40.1,29.91,NNW,340,0.0,0.0,90,0.00,,,0.00,0.0,meteohub,2013-10-07 06:54:00,
2013-10-07 01:59:00,42.6,40.1,29.91,NNW,340,0.0,0.0,91,0.00,,,0.00,0.0,meteohub,2013-10-07 06:59:00,
2013-10-07 02:05:00,42.6,40.1,29.91,NNW,340,0.0,0.0,91,0.00,,,0.00,0.0,meteohub,2013-10-07 07:05:00,
2013-10-07 02:10:00,42.6,40.1,29.91,NNW,340,0.0,0.0,91,0.00,,,0.00,0.0,meteohub,2013-10-07 07:10:00,
2013-10-07 02:15:00,42.6,40.1,29.91,NNW,340,0.0,0.0,91,0.00,,,0.00,0.0,meteohub,2013-10-07 07:15:00,
2013-10-07 02:20:00,42.6,40.1,29.91,NNW,340,0.0,0.0,91,0.00,,,0.00,0.0,meteohub,2013-10-07 07:20:00,
2013-10-07 02:25:00,42.6,40.1,29.91,NNW,340,0.0,0.0,91,0.00,,,0.00,0.0,meteohub,2013-10-07 07:25:00,
2013-10-07 02:30:00,42.6,40.1,29.90,NNW,340,0.0,0.0,91,0.00,,,0.00,0.0,meteohub,2013-10-07 07:30:00,
2013-10-07 02:35:00,42.6,40.1,29.90,NNW,340,0.0,0.0,91,0.00,,,0.00,0.0,meteohub,2013-10-07 07:35:00,
2013-10-07 02:40:00,42.6,40.1,29.90,NNW,340,0.0,0.0,91,0.00,,,0.00,0.0,meteohub,2013-10-07 07:40:00,
2013-10-07 02:45:00,42.6,40.1,29.90,NNW,340,0.0,0.0,91,0.00,,,0.00,0.0,meteohub,2013-10-07 07:45:00,
2013-10-07 02:50:00,42.6,40.5,29.90,NNW,340,0.0,0.0,92,0.00,,,0.00,0.0,meteohub,2013-10-07 07:50:00,
2013-10-07 02:55:00,42.6,40.5,29.90,NNW,340,0.0,0.0,92,0.00,,,0.00,0.0,meteohub,2013-10-07 07:55:00,
2013-10-07 03:00:00,42.6,40.5,29.90,NNW,340,0.0,0.0,92,0.00,,,0.00,0.0,meteohub,2013-10-07 08:00:00,
2013-10-07 03:05:00,42.6,40.5,29.90,NNW,340,0.0,0.0,92,0.00,,,0.00,0.0,meteohub,2013-10-07 08:05:00,
2013-10-07 03:10:00,42.6,40.5,29.90,NNW,340,0.0,0.0,92,0.00,,,0.00,0.0,meteohub,2013-10-07 08:10:00,
2013-10-07 03:15:00,42.6,40.5,29.90,NNW,340,0.0,0.0,92,0.00,,,0.00,0.0,meteohub,2013-10-07 08:15:00,
2013-10-07 03:20:00,42.6,40.5,29.90,NNW,340,0.0,0.0,92,0.00,,,0.00,0.0,meteohub,2013-10-07 08:20:00,
2013-10-07 03:25:00,42.6,40.5,29.90,NNW,340,0.0,0.0,92,0.00,,,0.00,0.0,meteohub,2013-10-07 08:25:00,
2013-10-07 03:30:00,42.6,40.1,29.90,NNW,340,0.0,0.0,91,0.00,,,0.00,0.0,meteohub,2013-10-07 08:30:00,
2013-10-07 03:35:00,42.6,40.1,29.91,NNW,340,0.0,0.0,91,0.00,,,0.00,0.0,meteohub,2013-10-07 08:35:00,
2013-10-07 03:40:00,42.6,40.1,29.91,NNW,340,0.0,0.0,91,0.00,,,0.00,0.0,meteohub,2013-10-07 08:40:00,
2013-10-07 03:45:00,42.6,40.1,29.91,NNW,340,0.0,0.0,91,0.00,,,0.00,0.0,meteohub,2013-10-07 08:45:00,
2013-10-07 03:50:00,42.6,40.5,29.91,NNW,340,0.0,0.0,92,0.00,,,0.00,0.0,meteohub,2013-10-07 08:50:00,
2013-10-07 03:55:00,42.4,40.3,29.91,NNW,340,0.0,0.0,92,0.00,,,0.00,0.0,meteohub,2013-10-07 08:55:00,
2013-10-07 04:01:00,42.4,40.3,29.91,NNW,340,0.0,0.0,92,0.00,,,0.00,0.0,meteohub,2013-10-07 09:01:00,
2013-10-07 04:06:00,42.4,40.3,29.91,NNW,340,0.0,0.0,92,0.00,,,0.00,0.0,meteohub,2013-10-07 09:06:00,
2013-10-07 04:11:00,42.4,40.3,29.90,NNW,340,0.0,0.0,92,0.00,,,0.00,0.0,meteohub,2013-10-07 09:11:00,
2013-10-07 04:16:00,42.4,40.3,29.90,NNW,340,0.0,0.0,92,0.00,,,0.00,0.0,meteohub,2013-10-07 09:16:00,
2013-10-07 04:21:00,42.4,40.3,29.91,NNW,340,0.0,0.0,92,0.00,,,0.00,0.0,meteohub,2013-10-07 09:21:00,
2013-10-07 04:26:00,42.4,40.3,29.91,NNW,340,0.0,0.0,92,0.00,,,0.00,0.0,meteohub,2013-10-07 09:26:00,
2013-10-07 04:31:00,42.4,40.3,29.91,NNW,340,0.0,0.0,92,0.00,,,0.00,0.0,meteohub,2013-10-07 09:31:00,
2013-10-07 04:36:00,42.4,40.3,29.91,NNW,340,0.0,0.0,92,0.00,,,0.00,0.0,meteohub,2013-10-07 09:36:00,
2013-10-07 04:41:00,42.4,40.3,29.91,NNW,340,0.0,0.0,92,0.00,,,0.00,0.0,meteohub,2013-10-07 09:41:00,
2013-10-07 04:46:00,42.4,40.3,29.91,NNW,340,0.0,0.0,92,0.00,,,0.00,0.0,meteohub,2013-10-07 09:46:00,
2013-10-07 04:51:00,42.4,40.3,29.91,NNW,340,0.0,0.0,92,0.00,,,0.00,0.0,meteohub,2013-10-07 09:51:00,
2013-10-07 04:56:00,42.4,40.3,29.91,NNW,340,0.0,0.0,92,0.00,,,0.00,0.0,meteohub,2013-10-07 09:56:00,
2013-10-07 05:01:00,42.4,40.3,29.91,NNW,340,0.0,0.0,92,0.00,,,0.00,0.0,meteohub,2013-10-07 10:01:00,
2013-10-07 05:06:00,42.4,40.3,29.92,NNW,340,0.0,0.0,92,0.00,,,0.00,0.0,meteohub,2013-10-07 10:06:00,
2013-10-07 05:11:00,42.4,40.3,29.92,NNW,340,0.0,0.0,92,0.00,,,0.00,0.0,meteohub,2013-10-07 10:11:00,
2013-10-07 05:16:00,42.4,40.3,29.92,NNW,340,0.0,0.0,92,0.00,,,0.00,0.0,meteohub,2013-10-07 10:16:00,
2013-10-07 05:21:00,42.4,40.3,29.92,NNW,339,0.0,1.0,92,0.00,,,0.00,0.0,meteohub,2013-10-07 10:21:00,
2013-10-07 05:26:00,42.4,40.3,29.92,NNW,339,0.0,2.0,92,0.00,,,0.00,0.0,meteohub,2013-10-07 10:26:00,
2013-10-07 05:31:00,42.6,40.5,29.92,NNW,339,0.0,2.0,92,0.00,,,0.00,0.0,meteohub,2013-10-07 10:31:00,
2013-10-07 05:36:00,42.6,40.5,29.92,NNW,339,0.0,1.0,92,0.00,,,0.00,0.0,meteohub,2013-10-07 10:36:00,
2013-10-07 05:41:00,42.6,40.5,29.92,NNW,339,0.0,0.0,92,0.00,,,0.00,0.0,meteohub,2013-10-07 10:41:00,
2013-10-07 05:46:00,42.6,40.5,29.92,NNW,339,0.0,1.0,92,0.00,,,0.00,0.0,meteohub,2013-10-07 10:46:00,
2013-10-07 05:51:00,42.6,40.5,29.92,NNW,339,0.0,1.0,92,0.00,,,0.00,0.0,meteohub,2013-10-07 10:51:00,
2013-10-07 05:56:00,42.8,40.6,29.92,NNW,339,0.0,1.0,92,0.00,,,0.00,0.0,meteohub,2013-10-07 10:56:00,
2013-10-07 06:01:00,42.8,40.3,29.92,NNW,339,0.0,0.0,91,0.00,,,0.00,0.0,meteohub,2013-10-07 11:01:00,
2013-10-07 06:06:00,42.8,40.6,29.93,NNW,339,0.0,0.0,92,0.00,,,0.00,0.0,meteohub,2013-10-07 11:06:00,
2013-10-07 06:12:00,42.8,40.3,29.93,NNW,339,0.0,0.0,91,0.00,,,0.00,0.0,meteohub,2013-10-07 11:12:00,
2013-10-07 06:17:00,43.0,40.8,29.93,NNW,339,0.0,0.0,92,0.00,,,0.00,0.0,meteohub,2013-10-07 11:17:00,
2013-10-07 06:22:00,43.0,40.5,29.93,NNW,339,0.0,0.0,91,0.00,,,0.00,0.0,meteohub,2013-10-07 11:22:00,
2013-10-07 06:27:00,43.0,40.8,29.94,NNW,339,0.0,0.0,92,0.00,,,0.00,0.0,meteohub,2013-10-07 11:27:00,
2013-10-07 06:32:00,42.8,40.6,29.94,NNW,339,0.0,0.0,92,0.00,,,0.00,0.0,meteohub,2013-10-07 11:32:00,
2013-10-07 06:37:00,42.8,40.6,29.94,NNW,339,0.0,0.0,92,0.00,,,0.00,0.0,meteohub,2013-10-07 11:37:00,
2013-10-07 06:42:00,42.8,40.6,29.94,NNW,339,0.0,0.0,92,0.00,,,0.00,0.0,meteohub,2013-10-07 11:42:00,
2013-10-07 06:47:00,42.6,40.5,29.95,NNW,339,0.0,0.0,92,0.00,,,0.00,0.0,meteohub,2013-10-07 11:47:00,
2013-10-07 06:52:00,42.6,40.5,29.95,NNW,339,0.0,0.0,92,0.00,,,0.00,0.0,meteohub,2013-10-07 11:52:00,
2013-10-07 06:57:00,42.6,40.5,29.95,NNW,339,0.0,0.0,92,0.00,,,0.00,0.0,meteohub,2013-10-07 11:57:00,
2013-10-07 07:02:00,42.6,40.5,29.95,NNW,339,0.0,1.0,92,0.00,,,0.00,0.0,meteohub,2013-10-07 12:02:00,
2013-10-07 07:07:00,42.6,40.5,29.95,NNW,339,0.0,1.0,92,0.00,,,0.00,0.0,meteohub,2013-10-07 12:07:00,
2013-10-07 07:12:00,42.6,40.5,29.95,NNW,339,0.0,1.0,92,0.00,,,0.00,0.0,meteohub,2013-10-07 12:12:00,
2013-10-07 07:17:00,42.6,40.5,29.95,NNW,339,0.0,0.0,92,0.00,,,0.00,0.0,meteohub,2013-10-07 12:17:00,
2013-10-07 07:22:00,42.6,40.5,29.96,NNW,339,0.0,0.0,92,0.00,,,0.00,0.0,meteohub,2013-10-07 12:22:00,
2013-10-07 07:27:00,42.4,40.3,29.96,NNW,339,0.0,1.0,92,0.00,,,0.00,0.0,meteohub,2013-10-07 12:27:00,
2013-10-07 07:32:00,42.4,40.3,29.96,NNW,339,0.0,1.0,92,0.00,,,0.00,5.0,meteohub,2013-10-07 12:32:00,
2013-10-07 07:37:00,42.6,40.5,29.97,NNW,339,0.0,1.0,92,0.00,,,0.00,5.0,meteohub,2013-10-07 12:37:00,
2013-10-07 07:42:00,42.6,40.8,29.96,NNW,339,0.0,1.0,93,0.00,,,0.00,5.0,meteohub,2013-10-07 12:42:00,
2013-10-07 07:47:00,42.6,40.8,29.97,NNW,339,0.0,1.0,93,0.00,,,0.00,7.0,meteohub,2013-10-07 12:47:00,
2013-10-07 07:52:00,42.6,40.8,29.96,NNW,339,0.0,1.0,93,0.00,,,0.00,7.0,meteohub,2013-10-07 12:52:00,
2013-10-07 07:57:00,42.6,40.8,29.97,NNW,339,0.0,1.0,93,0.00,,,0.00,9.0,meteohub,2013-10-07 12:57:00,
2013-10-07 08:02:00,42.6,40.8,29.97,NNW,339,0.0,1.0,93,0.00,,,0.00,11.0,meteohub,2013-10-07 13:02:00,
2013-10-07 08:07:00,42.6,40.8,29.97,NNW,339,0.0,0.0,93,0.00,,,0.00,12.0,meteohub,2013-10-07 13:07:00,
2013-10-07 08:12:00,42.6,40.8,29.97,NNW,339,0.0,0.0,93,0.00,,,0.00,12.0,meteohub,2013-10-07 13:12:00,
2013-10-07 08:17:00,42.6,40.8,29.97,NNW,339,0.0,0.0,93,0.00,,,0.00,14.0,meteohub,2013-10-07 13:17:00,
2013-10-07 08:22:00,42.4,40.6,29.97,NNW,339,0.0,0.0,93,0.00,,,0.00,14.0,meteohub,2013-10-07 13:22:00,
2013-10-07 08:27:00,42.4,40.6,29.98,NNW,339,0.0,0.0,93,0.00,,,0.00,18.0,meteohub,2013-10-07 13:27:00,
2013-10-07 08:32:00,42.4,40.6,29.98,NNW,339,0.0,0.0,93,0.00,,,0.00,21.0,meteohub,2013-10-07 13:32:00,
2013-10-07 08:37:00,42.4,40.6,29.98,NNW,339,0.0,0.0,93,0.00,,,0.00,25.0,meteohub,2013-10-07 13:37:00,
2013-10-07 08:42:00,42.4,40.6,29.99,NNW,339,0.0,0.0,93,0.00,,,0.00,28.0,meteohub,2013-10-07 13:42:00,
2013-10-07 08:47:00,42.4,40.6,29.99,NNW,339,0.0,0.0,93,0.00,,,0.00,33.0,meteohub,2013-10-07 13:47:00,
2013-10-07 08:52:00,42.6,41.0,29.99,NW,318,0.0,1.0,94,0.00,,,0.00,35.0,meteohub,2013-10-07 13:52:00,
2013-10-07 08:57:00,42.8,41.2,29.99,North,355,0.0,3.0,94,0.00,,,0.00,39.0,meteohub,2013-10-07 13:57:00,
2013-10-07 09:02:00,43.2,41.5,29.99,North,355,0.0,3.0,94,0.00,,,0.00,42.0,meteohub,2013-10-07 14:02:00,
2013-10-07 09:07:00,43.2,41.9,29.99,North,355,0.0,3.0,95,0.00,,,0.00,42.0,meteohub,2013-10-07 14:07:00,
2013-10-07 09:12:00,43.3,42.1,29.99,North,355,0.0,1.0,95,0.00,,,0.00,37.0,meteohub,2013-10-07 14:12:00,
2013-10-07 09:17:00,43.7,42.4,29.99,North,355,0.0,1.0,95,0.00,,,0.00,35.0,meteohub,2013-10-07 14:17:00,
2013-10-07 09:22:00,44.1,42.8,29.99,North,355,0.0,1.0,95,0.00,,,0.00,35.0,meteohub,2013-10-07 14:22:00,
2013-10-07 09:27:00,44.2,43.2,29.99,North,0,0.0,0.0,96,0.00,,,0.00,40.0,meteohub,2013-10-07 14:27:00,
2013-10-07 09:32:00,44.6,43.3,29.99,North,0,0.0,2.0,95,0.00,,,0.00,39.0,meteohub,2013-10-07 14:32:00,
2013-10-07 09:37:00,44.8,43.7,29.99,NNE,25,0.0,2.0,96,0.00,,,0.00,39.0,meteohub,2013-10-07 14:37:00,
2013-10-07 09:42:00,45.1,44.1,29.99,NNE,24,0.0,2.0,96,0.00,,,0.00,40.0,meteohub,2013-10-07 14:42:00,
2013-10-07 09:47:00,45.3,44.2,29.99,NNE,24,0.0,1.0,96,0.00,,,0.00,42.0,meteohub,2013-10-07 14:47:00,
2013-10-07 09:52:00,45.7,44.6,30.00,NNE,24,0.0,1.0,96,0.00,,,0.00,46.0,meteohub,2013-10-07 14:52:00,
2013-10-07 09:57:00,46.0,45.0,30.00,NNE,24,0.0,1.0,96,0.00,,,0.00,47.0,meteohub,2013-10-07 14:57:00,
2013-10-07 10:02:00,46.2,45.1,30.00,NNE,24,0.0,1.0,96,0.00,,,0.00,53.0,meteohub,2013-10-07 15:02:00,
2013-10-07 10:07:00,46.6,45.5,30.01,NNE,24,0.0,1.0,96,0.00,,,0.00,65.0,meteohub,2013-10-07 15:07:00,
2013-10-07 10:12:00,46.9,45.9,30.01,SSE,148,0.0,0.0,96,0.00,,,0.00,74.0,meteohub,2013-10-07 15:12:00,
2013-10-07 10:17:00,47.1,46.0,30.01,SSE,148,0.0,2.0,96,0.00,,,0.00,93.0,meteohub,2013-10-07 15:17:00,
2013-10-07 10:22:00,47.5,46.4,30.01,SSE,148,0.0,2.0,96,0.00,,,0.00,77.0,meteohub,2013-10-07 15:22:00,
2013-10-07 10:27:00,47.7,46.6,30.01,SSE,148,0.0,1.0,96,0.00,,,0.00,83.0,meteohub,2013-10-07 15:27:00,
2013-10-07 10:32:00,48.0,46.6,30.01,SSE,148,0.0,0.0,95,0.00,,,0.00,90.0,meteohub,2013-10-07 15:32:00,
2013-10-07 10:37:00,48.6,47.1,30.01,SSE,148,0.0,0.0,95,0.00,,,0.00,86.0,meteohub,2013-10-07 15:37:00,
2013-10-07 10:42:00,48.7,47.1,30.01,SSE,148,0.0,0.0,94,0.00,,,0.00,81.0,meteohub,2013-10-07 15:42:00,
2013-10-07 10:47:00,49.1,47.5,30.01,SSE,148,0.0,0.0,94,0.00,,,0.00,77.0,meteohub,2013-10-07 15:47:00,
2013-10-07 10:52:00,49.5,47.5,30.01,SSE,148,0.0,1.0,93,0.00,,,0.00,72.0,meteohub,2013-10-07 15:52:00,
2013-10-07 10:57:00,49.8,47.7,30.01,SSE,148,0.0,1.0,92,0.00,,,0.00,65.0,meteohub,2013-10-07 15:57:00,
2013-10-07 11:02:00,50.4,48.2,30.01,SSE,148,0.0,1.0,92,0.00,,,0.00,70.0,meteohub,2013-10-07 16:02:00,
2013-10-07 11:07:00,50.7,47.8,30.01,SSE,148,0.0,1.0,90,0.00,,,0.00,86.0,meteohub,2013-10-07 16:07:00,
2013-10-07 11:12:00,51.1,48.2,30.01,SSE,148,0.0,1.0,90,0.00,,,0.00,65.0,meteohub,2013-10-07 16:12:00,
2013-10-07 11:17:00,51.6,47.8,30.01,SSE,148,0.0,1.0,87,0.00,,,0.00,84.0,meteohub,2013-10-07 16:17:00,
2013-10-07 11:22:00,54.3,48.6,30.01,SSE,148,0.0,1.0,81,0.00,,,0.00,167.0,meteohub,2013-10-07 16:22:00,
2013-10-07 11:27:00,55.2,49.8,30.01,SSE,156,0.0,1.0,82,0.00,,,0.00,160.0,meteohub,2013-10-07 16:27:00,
2013-10-07 11:32:00,55.8,49.6,30.01,SE,146,0.0,1.0,80,0.00,,,0.00,84.0,meteohub,2013-10-07 16:32:00,
2013-10-07 11:37:00,56.5,50.0,30.01,SE,146,0.0,1.0,79,0.00,,,0.00,76.0,meteohub,2013-10-07 16:37:00,
2013-10-07 11:42:00,56.1,49.6,30.01,SE,146,0.0,1.0,79,0.00,,,0.00,74.0,meteohub,2013-10-07 16:42:00,
2013-10-07 11:47:00,56.5,50.4,30.01,SE,146,0.0,1.0,80,0.00,,,0.00,76.0,meteohub,2013-10-07 16:47:00,
2013-10-07 11:52:00,57.6,49.6,30.01,NNE,33,0.0,1.0,75,0.00,,,0.00,93.0,meteohub,2013-10-07 16:52:00,
2013-10-07 11:57:00,57.7,50.2,30.01,NNE,33,0.0,1.0,76,0.00,,,0.00,79.0,meteohub,2013-10-07 16:57:00,
2013-10-07 12:02:00,58.1,50.9,30.01,NNE,33,0.0,1.0,77,0.00,,,0.00,77.0,meteohub,2013-10-07 17:02:00,
2013-10-07 12:07:00,58.5,49.5,30.01,NNE,33,0.0,1.0,72,0.00,,,0.00,63.0,meteohub,2013-10-07 17:07:00,
2013-10-07 12:12:00,59.2,45.3,30.01,NNE,33,1.0,1.0,60,0.00,,,0.00,56.0,meteohub,2013-10-07 17:12:00,
2013-10-07 12:17:00,59.5,48.2,30.01,NE,40,0.0,2.0,66,0.00,,,0.00,227.0,meteohub,2013-10-07 17:17:00,
2013-10-07 12:22:00,60.4,43.7,30.01,ENE,67,0.0,2.0,54,0.00,,,0.00,510.0,meteohub,2013-10-07 17:22:00,
2013-10-07 12:27:00,61.2,45.9,30.01,WSW,254,0.0,3.0,57,0.00,,,0.00,580.0,meteohub,2013-10-07 17:27:00,
2013-10-07 12:32:00,61.5,44.2,30.00,North,11,0.0,3.0,53,0.00,,,0.00,578.0,meteohub,2013-10-07 17:32:00,
2013-10-07 12:37:00,62.1,44.8,30.00,NW,306,0.0,3.0,53,0.00,,,0.00,584.0,meteohub,2013-10-07 17:37:00,
2013-10-07 12:42:00,61.2,45.3,30.01,NW,306,0.0,3.0,56,0.00,,,0.00,598.0,meteohub,2013-10-07 17:42:00,
2013-10-07 12:47:00,62.1,48.0,30.00,NW,325,0.0,3.0,60,0.00,,,0.00,624.0,meteohub,2013-10-07 17:47:00,
2013-10-07 12:52:00,62.1,49.3,30.01,NW,325,1.0,3.0,63,0.00,,,0.00,626.0,meteohub,2013-10-07 17:52:00,
2013-10-07 12:57:00,61.9,47.8,30.01,NE,44,0.0,3.0,60,0.00,,,0.00,629.0,meteohub,2013-10-07 17:57:00,
2013-10-07 13:02:00,62.4,50.0,30.00,NE,43,0.0,2.0,64,0.00,,,0.00,633.0,meteohub,2013-10-07 18:02:00,
2013-10-07 13:07:00,63.0,45.5,30.00,SSW,211,0.0,1.0,53,0.00,,,0.00,633.0,meteohub,2013-10-07 18:07:00,
2013-10-07 13:12:00,63.7,45.1,29.99,North,10,0.0,2.0,51,0.00,,,0.00,132.0,meteohub,2013-10-07 18:12:00,
2013-10-07 13:17:00,63.9,49.6,29.99,North,10,0.0,3.0,60,0.00,,,0.00,179.0,meteohub,2013-10-07 18:17:00,
2013-10-07 13:23:00,63.1,46.2,29.99,North,9,1.0,3.0,54,0.00,,,0.00,155.0,meteohub,2013-10-07 18:23:00,
2013-10-07 13:28:00,62.6,49.5,29.99,NNE,30,0.0,3.0,62,0.00,,,0.00,218.0,meteohub,2013-10-07 18:28:00,
2013-10-07 13:33:00,63.0,49.8,29.99,NNE,30,0.0,2.0,62,0.00,,,0.00,209.0,meteohub,2013-10-07 18:33:00,
2013-10-07 13:38:00,63.0,46.0,29.99,NE,38,0.0,2.0,54,0.00,,,0.00,123.0,meteohub,2013-10-07 18:38:00,
2013-10-07 13:43:00,62.8,46.9,29.99,NE,55,0.0,1.0,56,0.00,,,0.00,98.0,meteohub,2013-10-07 18:43:00,
2013-10-07 13:48:00,63.3,42.3,29.99,WNW,302,0.0,2.0,46,0.00,,,0.00,72.0,meteohub,2013-10-07 18:48:00,
2013-10-07 13:53:00,62.2,45.9,29.99,WNW,302,0.0,2.0,55,0.00,,,0.00,438.0,meteohub,2013-10-07 18:53:00,
2013-10-07 13:58:00,63.1,43.7,29.99,WNW,302,0.0,2.0,49,0.00,,,0.00,557.0,meteohub,2013-10-07 18:58:00,
2013-10-07 14:03:00,63.3,45.9,29.98,WNW,302,0.0,1.0,53,0.00,,,0.00,105.0,meteohub,2013-10-07 19:03:00,
2013-10-07 14:08:00,63.9,46.4,29.98,WNW,299,1.0,1.0,53,0.00,,,0.00,77.0,meteohub,2013-10-07 19:08:00,
2013-10-07 14:13:00,64.6,48.9,29.98,NW,304,0.0,2.0,57,0.00,,,0.00,250.0,meteohub,2013-10-07 19:13:00,
2013-10-07 14:18:00,63.7,45.1,29.98,NNE,17,0.0,2.0,51,0.00,,,0.00,478.0,meteohub,2013-10-07 19:18:00,
2013-10-07 14:23:00,64.8,46.8,29.98,WSW,253,0.0,4.0,52,0.00,,,0.00,179.0,meteohub,2013-10-07 19:23:00,
2013-10-07 14:28:00,64.8,46.2,29.98,WSW,254,0.0,4.0,51,0.00,,,0.00,181.0,meteohub,2013-10-07 19:28:00,
2013-10-07 14:33:00,64.8,42.3,29.98,WSW,254,0.0,4.0,44,0.00,,,0.00,584.0,meteohub,2013-10-07 19:33:00,
2013-10-07 14:38:00,65.5,44.2,29.98,NNE,13,1.0,1.0,46,0.00,,,0.00,563.0,meteohub,2013-10-07 19:38:00,
2013-10-07 14:43:00,66.0,41.0,29.98,ENE,73,0.0,1.0,40,0.00,,,0.00,571.0,meteohub,2013-10-07 19:43:00,
2013-10-07 14:48:00,65.8,43.3,29.97,SSE,155,0.0,2.0,44,0.00,,,0.00,564.0,meteohub,2013-10-07 19:48:00,
2013-10-07 14:53:00,66.2,43.0,29.97,West,267,0.0,2.0,43,0.00,,,0.00,557.0,meteohub,2013-10-07 19:53:00,
2013-10-07 14:58:00,66.4,45.0,29.97,ESE,122,0.0,2.0,46,0.00,,,0.00,548.0,meteohub,2013-10-07 19:58:00,
2013-10-07 15:03:00,65.7,45.0,29.97,NNE,16,0.0,2.0,47,0.00,,,0.00,543.0,meteohub,2013-10-07 20:03:00,
2013-10-07 15:09:00,65.7,46.6,29.97,NNW,331,0.0,2.0,50,0.00,,,0.00,536.0,meteohub,2013-10-07 20:09:00,
2013-10-07 15:14:00,65.1,42.6,29.97,ESE,107,0.0,1.0,44,0.00,,,0.00,526.0,meteohub,2013-10-07 20:14:00,
2013-10-07 15:19:00,66.0,41.7,29.97,NE,52,0.0,0.0,41,0.00,,,0.00,341.0,meteohub,2013-10-07 20:19:00,
2013-10-07 15:24:00,66.6,45.1,29.96,WSW,256,0.0,0.0,46,0.00,,,0.00,301.0,meteohub,2013-10-07 20:24:00,
2013-10-07 15:29:00,66.4,47.1,29.96,West,277,0.0,0.0,50,0.00,,,0.00,188.0,meteohub,2013-10-07 20:29:00,
2013-10-07 15:34:00,66.2,43.0,29.96,North,10,2.0,0.0,43,0.00,,,0.00,200.0,meteohub,2013-10-07 20:34:00,
2013-10-07 15:39:00,66.6,44.6,29.96,WNW,295,0.0,2.0,45,0.00,,,0.00,53.0,meteohub,2013-10-07 20:39:00,
2013-10-07 15:44:00,66.6,43.3,29.96,NW,321,2.0,4.0,43,0.00,,,0.00,171.0,meteohub,2013-10-07 20:44:00,
2013-10-07 15:49:00,66.7,43.5,29.96,NW,323,0.0,4.0,43,0.00,,,0.00,67.0,meteohub,2013-10-07 20:49:00,
2013-10-07 15:54:00,66.4,43.2,29.96,NNW,341,1.0,3.0,43,0.00,,,0.00,77.0,meteohub,2013-10-07 20:54:00,
2013-10-07 15:59:00,66.6,44.1,29.96,North,5,0.0,3.0,44,0.00,,,0.00,162.0,meteohub,2013-10-07 20:59:00,
2013-10-07 16:04:00,66.2,44.8,29.95,NNW,336,0.0,3.0,46,0.00,,,0.00,53.0,meteohub,2013-10-07 21:04:00,
2013-10-07 16:09:00,66.0,42.3,29.95,WSW,250,1.0,3.0,42,0.00,,,0.00,42.0,meteohub,2013-10-07 21:09:00,
2013-10-07 16:14:00,65.7,46.0,29.95,SSW,200,0.0,3.0,49,0.00,,,0.00,40.0,meteohub,2013-10-07 21:14:00,
2013-10-07 16:19:00,65.7,48.6,29.95,West,279,0.0,3.0,54,0.00,,,0.00,32.0,meteohub,2013-10-07 21:19:00,
2013-10-07 16:24:00,65.7,46.6,29.95,NE,55,0.0,3.0,50,0.00,,,0.00,35.0,meteohub,2013-10-07 21:24:00,
2013-10-07 16:29:00,65.1,42.1,29.95,West,273,0.0,3.0,43,0.00,,,0.00,42.0,meteohub,2013-10-07 21:29:00,
2013-10-07 16:34:00,65.7,44.2,29.94,NW,319,0.0,1.0,46,0.00,,,0.00,39.0,meteohub,2013-10-07 21:34:00,
2013-10-07 16:39:00,65.7,43.7,29.94,North,355,0.0,2.0,45,0.00,,,0.00,42.0,meteohub,2013-10-07 21:39:00,
2013-10-07 16:44:00,65.7,45.5,29.94,West,277,1.0,2.0,48,0.00,,,0.00,35.0,meteohub,2013-10-07 21:44:00,
2013-10-07 16:49:00,65.7,45.5,29.94,WNW,284,0.0,3.0,48,0.00,,,0.00,37.0,meteohub,2013-10-07 21:49:00,
2013-10-07 16:54:00,65.5,45.3,29.94,NNE,28,0.0,3.0,48,0.00,,,0.00,32.0,meteohub,2013-10-07 21:54:00,
2013-10-07 16:59:00,64.9,46.9,29.94,NNE,28,0.0,2.0,52,0.00,,,0.00,54.0,meteohub,2013-10-07 21:59:00,
2013-10-07 17:04:00,64.9,46.4,29.94,NNE,28,0.0,2.0,51,0.00,,,0.00,47.0,meteohub,2013-10-07 22:04:00,
2013-10-07 17:09:00,64.8,47.7,29.94,West,279,0.0,2.0,54,0.00,,,0.00,33.0,meteohub,2013-10-07 22:09:00,
2013-10-07 17:15:00,64.9,46.4,29.94,ENE,65,0.0,0.0,51,0.00,,,0.00,49.0,meteohub,2013-10-07 22:15:00,
2013-10-07 17:20:00,64.4,47.5,29.94,ENE,65,0.0,3.0,54,0.00,,,0.00,88.0,meteohub,2013-10-07 22:20:00,
2013-10-07 17:25:00,64.2,46.8,29.94,ENE,65,0.0,3.0,53,0.00,,,0.00,51.0,meteohub,2013-10-07 22:25:00,
2013-10-07 17:30:00,63.9,47.3,29.94,ENE,65,0.0,3.0,55,0.00,,,0.00,26.0,meteohub,2013-10-07 22:30:00,
2013-10-07 17:35:00,64.2,46.8,29.94,WNW,283,0.0,1.0,53,0.00,,,0.00,25.0,meteohub,2013-10-07 22:35:00,
2013-10-07 17:40:00,63.9,47.8,29.94,WNW,283,0.0,2.0,56,0.00,,,0.00,25.0,meteohub,2013-10-07 22:40:00,
2013-10-07 17:45:00,63.3,46.9,29.93,WNW,283,0.0,2.0,55,0.00,,,0.00,23.0,meteohub,2013-10-07 22:45:00,
2013-10-07 17:50:00,63.1,47.1,29.93,WNW,283,0.0,1.0,56,0.00,,,0.00,23.0,meteohub,2013-10-07 22:50:00,
2013-10-07 17:55:00,63.0,46.9,29.93,WNW,283,0.0,1.0,56,0.00,,,0.00,21.0,meteohub,2013-10-07 22:55:00,
2013-10-07 18:00:00,62.8,48.2,29.93,WNW,283,0.0,1.0,59,0.00,,,0.00,19.0,meteohub,2013-10-07 23:00:00,
2013-10-07 18:05:00,62.4,48.7,29.93,WNW,283,0.0,1.0,61,0.00,,,0.00,19.0,meteohub,2013-10-07 23:05:00,
2013-10-07 18:10:00,62.1,49.3,29.93,WNW,283,0.0,1.0,63,0.00,,,0.00,18.0,meteohub,2013-10-07 23:10:00,
2013-10-07 18:15:00,61.5,48.4,29.93,WNW,283,0.0,1.0,62,0.00,,,0.00,18.0,meteohub,2013-10-07 23:15:00,
2013-10-07 18:20:00,61.3,49.1,29.93,WNW,283,0.0,1.0,64,0.00,,,0.00,14.0,meteohub,2013-10-07 23:20:00,
2013-10-07 18:25:00,60.8,48.6,29.93,WNW,283,0.0,0.0,64,0.00,,,0.00,12.0,meteohub,2013-10-07 23:25:00,
2013-10-07 18:30:00,60.4,48.6,29.93,WNW,283,0.0,0.0,65,0.00,,,0.00,11.0,meteohub,2013-10-07 23:30:00,
2013-10-07 18:35:00,60.3,48.9,29.92,WNW,283,0.0,0.0,66,0.00,,,0.00,9.0,meteohub,2013-10-07 23:35:00,
2013-10-07 18:40:00,59.5,48.6,29.92,WNW,283,0.0,0.0,67,0.00,,,0.00,7.0,meteohub,2013-10-07 23:40:00,
2013-10-07 18:45:00,59.2,48.6,29.93,WNW,283,0.0,0.0,68,0.00,,,0.00,5.0,meteohub,2013-10-07 23:45:00,
2013-10-07 18:50:00,58.8,48.2,29.93,WNW,283,0.0,0.0,68,0.00,,,0.00,0.0,meteohub,2013-10-07 23:50:00,
2013-10-07 18:55:00,58.5,48.4,29.93,WNW,283,0.0,0.0,69,0.00,,,0.00,0.0,meteohub,2013-10-07 23:55:00,
2013-10-07 19:00:00,58.1,48.4,29.93,WNW,283,0.0,0.0,70,0.00,,,0.00,0.0,meteohub,2013-10-08 00:00:00,
2013-10-07 19:05:00,57.7,48.0,29.93,WNW,283,0.0,0.0,70,0.00,,,0.00,0.0,meteohub,2013-10-08 00:05:00,
2013-10-07 19:11:00,57.4,48.0,29.92,WNW,283,0.0,1.0,71,0.00,,,0.00,0.0,meteohub,2013-10-08 00:11:00,
2013-10-07 19:16:00,57.0,47.7,29.93,WNW,283,0.0,1.0,71,0.00,,,0.00,0.0,meteohub,2013-10-08 00:16:00,
2013-10-07 19:21:00,56.8,47.8,29.93,WNW,283,0.0,1.0,72,0.00,,,0.00,0.0,meteohub,2013-10-08 00:21:00,
2013-10-07 19:26:00,56.7,48.0,29.93,WNW,283,0.0,0.0,73,0.00,,,0.00,0.0,meteohub,2013-10-08 00:26:00,
2013-10-07 19:31:00,56.3,47.8,29.92,WNW,283,0.0,0.0,73,0.00,,,0.00,0.0,meteohub,2013-10-08 00:31:00,
2013-10-07 19:36:00,55.9,47.5,29.93,WNW,283,0.0,0.0,73,0.00,,,0.00,0.0,meteohub,2013-10-08 00:36:00,
2013-10-07 19:41:00,55.8,47.3,29.93,WNW,283,0.0,0.0,73,0.00,,,0.00,0.0,meteohub,2013-10-08 00:41:00,
2013-10-07 19:46:00,55.8,47.3,29.93,WNW,283,0.0,0.0,73,0.00,,,0.00,0.0,meteohub,2013-10-08 00:46:00,
2013-10-07 19:51:00,55.6,47.1,29.93,WNW,283,0.0,0.0,73,0.00,,,0.00,0.0,meteohub,2013-10-08 00:51:00,
2013-10-07 19:56:00,55.6,47.1,29.93,WNW,283,0.0,0.0,73,0.00,,,0.00,0.0,meteohub,2013-10-08 00:56:00,
2013-10-07 20:01:00,55.2,46.8,29.93,WNW,283,0.0,0.0,73,0.00,,,0.00,0.0,meteohub,2013-10-08 01:01:00,
2013-10-07 20:06:00,55.2,46.4,29.93,WNW,283,0.0,0.0,72,0.00,,,0.00,0.0,meteohub,2013-10-08 01:06:00,
2013-10-07 20:11:00,55.0,46.6,29.93,WNW,283,0.0,0.0,73,0.00,,,0.00,0.0,meteohub,2013-10-08 01:11:00,
2013-10-07 20:16:00,55.0,46.6,29.93,WNW,283,0.0,0.0,73,0.00,,,0.00,0.0,meteohub,2013-10-08 01:16:00,
2013-10-07 20:21:00,55.0,46.2,29.93,WNW,283,0.0,1.0,72,0.00,,,0.00,0.0,meteohub,2013-10-08 01:21:00,
2013-10-07 20:26:00,55.0,46.2,29.93,WNW,283,0.0,1.0,72,0.00,,,0.00,0.0,meteohub,2013-10-08 01:26:00,
2013-10-07 20:31:00,55.0,46.2,29.93,WNW,283,0.0,1.0,72,0.00,,,0.00,0.0,meteohub,2013-10-08 01:31:00,
2013-10-07 20:36:00,54.9,45.7,29.93,WNW,283,0.0,0.0,71,0.00,,,0.00,0.0,meteohub,2013-10-08 01:36:00,
2013-10-07 20:41:00,54.9,45.7,29.93,WNW,283,0.0,1.0,71,0.00,,,0.00,0.0,meteohub,2013-10-08 01:41:00,
2013-10-07 20:46:00,54.9,46.0,29.93,North,355,0.0,1.0,72,0.00,,,0.00,0.0,meteohub,2013-10-08 01:46:00,
2013-10-07 20:51:00,54.7,46.2,29.93,North,355,0.0,2.0,73,0.00,,,0.00,0.0,meteohub,2013-10-08 01:51:00,
2013-10-07 20:56:00,54.7,45.9,29.93,North,355,0.0,2.0,72,0.00,,,0.00,0.0,meteohub,2013-10-08 01:56:00,
2013-10-07 21:01:00,54.7,45.9,29.93,North,355,0.0,1.0,72,0.00,,,0.00,0.0,meteohub,2013-10-08 02:01:00,
2013-10-07 21:06:00,54.3,46.2,29.93,North,355,0.0,1.0,74,0.00,,,0.00,0.0,meteohub,2013-10-08 02:06:00,
2013-10-07 21:11:00,54.1,46.0,29.93,North,355,0.0,1.0,74,0.00,,,0.00,0.0,meteohub,2013-10-08 02:11:00,
2013-10-07 21:16:00,54.1,46.4,29.93,North,355,0.0,1.0,75,0.00,,,0.00,0.0,meteohub,2013-10-08 02:16:00,
2013-10-07 21:21:00,54.0,46.6,29.93,North,355,0.0,0.0,76,0.00,,,0.00,0.0,meteohub,2013-10-08 02:21:00,
2013-10-07 21:26:00,54.0,46.6,29.93,NW,321,0.0,0.0,76,0.00,,,0.00,0.0,meteohub,2013-10-08 02:26:00,
2013-10-07 21:31:00,54.0,47.3,29.93,ESE,120,0.0,1.0,78,0.00,,,0.00,0.0,meteohub,2013-10-08 02:31:00,
2013-10-07 21:36:00,53.6,46.9,29.93,ESE,120,0.0,2.0,78,0.00,,,0.00,0.0,meteohub,2013-10-08 02:36:00,
2013-10-07 21:41:00,53.2,46.6,29.93,ESE,120,0.0,2.0,78,0.00,,,0.00,0.0,meteohub,2013-10-08 02:41:00,
2013-10-07 21:46:00,53.4,46.8,29.93,ENE,74,0.0,1.0,78,0.00,,,0.00,0.0,meteohub,2013-10-08 02:46:00,
2013-10-07 21:52:00,53.2,46.6,29.92,ENE,74,0.0,1.0,78,0.00,,,0.00,0.0,meteohub,2013-10-08 02:52:00,
2013-10-07 21:57:00,53.1,46.8,29.92,ENE,74,0.0,1.0,79,0.00,,,0.00,0.0,meteohub,2013-10-08 02:57:00,
2013-10-07 22:02:00,52.9,46.9,29.92,ENE,74,0.0,0.0,80,0.00,,,0.00,0.0,meteohub,2013-10-08 03:02:00,
2013-10-07 22:07:00,53.2,46.2,29.91,West,279,1.0,1.0,77,0.00,,,0.00,0.0,meteohub,2013-10-08 03:07:00,
2013-10-07 22:12:00,53.6,46.9,29.92,West,270,0.0,3.0,78,0.00,,,0.00,0.0,meteohub,2013-10-08 03:12:00,
2013-10-07 22:17:00,53.6,47.3,29.91,NW,311,2.0,5.0,79,0.00,,,0.00,0.0,meteohub,2013-10-08 03:17:00,
2013-10-07 22:22:00,53.8,47.1,29.91,WNW,289,0.0,5.0,78,0.00,,,0.00,0.0,meteohub,2013-10-08 03:22:00,
2013-10-07 22:27:00,53.8,46.4,29.91,NE,52,0.0,5.0,76,0.00,,,0.00,0.0,meteohub,2013-10-08 03:27:00,
2013-10-07 22:32:00,54.0,46.6,29.91,West,279,0.0,2.0,76,0.00,,,0.00,0.0,meteohub,2013-10-08 03:32:00,
2013-10-07 22:36:00,53.6,47.3,29.91,West,279,0.0,2.0,79,0.00,,,0.00,0.0,meteohub,2013-10-08 03:36:00,
2013-10-07 22:42:00,53.1,46.4,29.91,West,279,3.0,3.0,78,0.00,,,0.00,0.0,meteohub,2013-10-08 03:42:00,
2013-10-07 22:47:00,53.2,46.6,29.91,North,355,0.0,4.0,78,0.00,,,0.00,0.0,meteohub,2013-10-08 03:47:00,
2013-10-07 22:52:00,53.1,46.8,29.91,North,355,0.0,4.0,79,0.00,,,0.00,0.0,meteohub,2013-10-08 03:52:00,
2013-10-07 22:57:00,52.5,46.9,29.91,North,0,1.0,4.0,81,0.00,,,0.00,0.0,meteohub,2013-10-08 03:57:00,
2013-10-07 23:01:00,52.5,46.9,29.91,North,0,0.0,3.0,81,0.00,,,0.00,0.0,meteohub,2013-10-08 04:01:00,
2013-10-07 23:04:00,52.3,46.8,29.91,NNE,25,0.0,3.0,81,0.00,,,0.00,0.0,meteohub,2013-10-08 04:04:00,
2013-10-07 23:09:00,52.3,46.8,29.91,North,355,0.0,2.0,81,0.00,,,0.00,0.0,meteohub,2013-10-08 04:09:00,
2013-10-07 23:15:00,52.2,46.8,29.91,North,355,0.0,2.0,82,0.00,,,0.00,0.0,meteohub,2013-10-08 04:15:00,
2013-10-07 23:20:00,52.0,46.9,29.91,North,355,0.0,2.0,83,0.00,,,0.00,0.0,meteohub,2013-10-08 04:20:00,
2013-10-07 23:25:00,51.4,46.4,29.91,South,187,0.0,2.0,83,0.00,,,0.00,0.0,meteohub,2013-10-08 04:25:00,
2013-10-07 23:30:00,51.4,46.8,29.91,WSW,238,0.0,1.0,84,0.00,,,0.00,0.0,meteohub,2013-10-08 04:30:00,
2013-10-07 23:35:00,51.4,46.8,29.91,WSW,238,0.0,2.0,84,0.00,,,0.00,0.0,meteohub,2013-10-08 04:35:00,
2013-10-07 23:40:00,51.3,46.9,29.91,ENE,57,1.0,2.0,85,0.00,,,0.00,0.0,meteohub,2013-10-08 04:40:00,
2013-10-07 23:45:00,51.1,46.4,29.91,SE,142,0.0,3.0,84,0.00,,,0.00,0.0,meteohub,2013-10-08 04:45:00,
2013-10-07 23:50:00,51.1,46.4,29.91,North,5,0.0,3.0,84,0.00,,,0.00,0.0,meteohub,2013-10-08 04:50:00,
2013-10-07 23:55:00,50.9,46.2,29.91,North,5,0.0,3.0,84,0.00,,,0.00,0.0,meteohub,2013-10-08 04:55:00,